Regional Weather Roundup
Issued by NWS

Home | Current Version | Previous Version | Graphics & Text | Print | Product List | Glossary On
Versions: 1 2 3 4 5 6 7 8 9 10 11 12 13 14 15 16 17 18 19 20 21 22 23 24 25 26 27 28 29 30 31 32 33 34 35 36 37 38 39 40 41 42 43 44 45 46 47 48 49 50
000
ASUS45 KBOU 151510
RWRCO

WEATHER ROUNDUP FOR COLORADO
NATIONAL WEATHER SERVICE DENVER/BOULDER CO
800 AM MST MON JAN 15 2018

NOTE: "FAIR" INDICATES FEW OR NO CLOUDS BELOW 12000 FEET WITH NO
SIGNIFICANT WEATHER AND/OR OBSTRUCTIONS TO VISIBILITY.

COZ001>005-013-030-031-151600-
...NORTHWEST COLORADO...

CITY           SKY/WX    TMP DP  RH WIND       PRES   REMARKS
CRAIG          FAIR       9   5  84 CALM      30.34R
HAYDEN         FAIR      11   7  84 SE5       30.32R WCI   3
MEEKER         FAIR      19  15  84 VRB5      30.31R WCI  12
RABBIT EARS PA CLOUDY   N/A N/A N/A W5        30.24S
STEAMBOAT SPGS FAIR       8   5  88 CALM      30.31R
WALDEN         CLOUDY    25  18  74 NW12      30.27S WCI  14
$$

COZ006>008-011-151600-
...WEST CENTRAL VALLEYS...

CITY           SKY/WX    TMP DP  RH WIND       PRES   REMARKS
GRAND JUNCTION FAIR      21  20  96 E3        30.29S
MONTROSE       FAIR      19  14  81 S3        30.32R
EAGLE          FAIR      12   9  87 CALM      30.34R
RIFLE          FAIR      20  17  88 S5        30.32S WCI  13
DELTA          FAIR      19  16  88 CALM      30.32R
NUCLA          FAIR      23  14  68 SE3       30.31S
$$

COZ017>023-064>068-151600-
...SOUTHWEST COLORADO...

CITY           SKY/WX    TMP DP  RH WIND       PRES   REMARKS
DURANGO        FAIR      14  12  92 CALM      30.24R
CORTEZ         FAIR      18  14  84 CALM      30.26R
PAGOSA SPRINGS FAIR      19  16  90 CALM      30.24S
TELLURIDE      FAIR      24   3  42 SE6       30.29S WCI  16
WOLF CREEK PAS FAIR      27  -6  24 CALM      30.32S
$$

COZ009-010-012-014-032>034-037-058>063-151600-
...CENTRAL COLORADO...

CITY           SKY/WX    TMP DP  RH WIND       PRES   REMARKS
ASPEN          FAIR      15   7  70 S7        30.27S WCI   5
BUENA VISTA    FAIR      12   3  67 W3        30.25R
COPPER MTN     NOT AVBL
BERTHOUD PASS  LGT SNOW  12   1  62 NW29G41   30.18R WCI  -9
COTTONWOOD PAS NOT AVBL
GUNNISON       FAIR       1  -3  83 CALM      30.32R
KREMMLING      NOT AVBL
LEADVILLE      FAIR      19   6  57 N5        30.21F WCI  12
MONARCH PASS   FAIR      18   1  49 NW16      30.33R WCI   3
SALIDA         FAIR      24  19  78 SE7       30.34R WCI  16
SUNLIGHT       FAIR      19  10  68 NW5       30.32S WCI  13
WILKERSON PASS FAIR      19   5  53 NW7       30.23S WCI  10
$$

COZ069>075-151600-
...SAN LUIS VALLEY/SANGRE DE CRISTO MOUNTAINS...

CITY           SKY/WX    TMP DP  RH WIND       PRES   REMARKS
ALAMOSA        FAIR       5  -2  72 E3        30.23S
DEL NORTE      FAIR      19  -5  35 W9        30.22R WCI   8
LA VETA PASS   SNOW      16  12  86 N5          N/A  VSB<1/4 WCI   9
SAGUACHE       FAIR      12   3  67 E5        30.24R WCI   4
$$

COZ035-036-038>040-151600-
...NORTHERN COLORADO FRONT RANGE...

CITY           SKY/WX    TMP DP  RH WIND       PRES   REMARKS
DENVER INTL AP FLURRIES  18  13  80 NE9       30.40R WCI   7
DMNS CITY PARK NOT AVBL
AURORA         FLURRIES  17  17  98 NE8       30.40R WCI   7
FRONT RANGE AP NOT AVBL
ERIE MUNI ARPT LGT SNOW  22  20  94 E12       30.47R WCI  10
BOULDER MUN AP LGT SNOW  23  23 100 E7        30.39S WCI  15
CENTENNIAL     FRZ DRZL  19  17  92 E6        30.38R FOG     WCI  11
BROOMFIELD     FRZ DRZL  21  19  93 E9        30.39R WCI  11
FORT COLLINS   LGT SNOW  22  16  78 SE6       30.43R WCI  14
LONGMONT       FLURRIES  24  21  88 E9        30.43R WCI  15
$$

COZ041-046-047-076>085-087-088-151600-
...PIKES PEAK/PALMER DIVIDE AND SOUTHERN FOOTHILLS...

CITY           SKY/WX    TMP DP  RH WIND       PRES   REMARKS
COLO. SPRINGS  CLOUDY    25  19  78 NE17      30.32R WCI  12
A. F. ACADEMY  CLOUDY    22  17  80 N18       30.30R WCI   8
SCHRIEVER AFB  CLOUDY    20  17  87 NE18      30.33R WCI   5
CHEYENNE MTN   LGT SNOW  21  20  98 SE8       30.24R WCI  11
ELLICOTT         N/A    N/A N/A N/A NE20G28   30.32R
FALCON         NOT AVBL
FORT CARSON    CLOUDY    25  20  81 SE8       30.33R WCI  16
LIMON          CLOUDY    16   9  74 N16       30.39R WCI   1
MONUMENT HILL  CLOUDY    16  14  93 NE10      30.33R FOG     WCI   3
CANON CITY     CLOUDY    32  27  80 NE3       30.35R
WALSENBURG     CLOUDY    28  27  93 E5        30.34R WCI  23
TRINIDAD       CLOUDY    26  24  92 NE9       30.34R WCI  17
$$

COZ042>045-048>051-090-091-151600-
...NORTHEAST COLORADO...

CITY           SKY/WX    TMP DP  RH WIND       PRES   REMARKS
GREELEY ARPT   FLURRIES  21  12  68 N7        30.46R WCI  12
AKRON          CLOUDY    15  11  83 N12       30.42R WCI   2
BURLINGTON     CLOUDY    16  10  77 N12       30.43R WCI   3
WRAY           CLOUDY    18   5  57 N13       30.49R WCI   4
YUMA           CLOUDY    14   7  73 N9        30.45R WCI   2
STERLING       CLOUDY    18  12  79 NE10      30.47R WCI   6
HOLYOKE        FAIR      12   3  67 N9        30.50R WCI   0
FORT MORGAN    CLOUDY    18   3  52 N10       30.46R WCI   6
$$

COZ086-089-092>099-151600-
...SOUTHEAST COLORADO...

CITY           SKY/WX    TMP DP  RH WIND       PRES   REMARKS
PUEBLO         MIX PCPN  29  26  89 E6        30.38R FOG     WCI  23
LA JUNTA       CLOUDY    29  25  85 E13       30.41R WCI  19
LAMAR          CLOUDY    26  21  81 E14       30.43R WCI  14
SPRINGFIELD      N/A     25  25 100 NE21      30.36R WCI  11
$$



USA.gov is the U.S. government's official web portal to all federal, state and local government web resources and services.